Middletown, RI

2:11 AM EDT on October 01, 2016 (GMT -0400)
Newport State

Weather History for KUUU - December, 2012

Change the Weather History Date:

Wednesday, December 12, 2012

  Actual Average Record
Temperature  
Mean Temperature 34 °F -  
Max Temperature 39 °F 43 °F 61 °F (2008)
Min Temperature 30 °F 28 °F 3 °F (1988)
Degree Days  
Heating Degree Days 30    
Moisture  
Dew Point 22 °F    
Average Humidity 61    
Maximum Humidity 73    
Minimum Humidity 46    
Precipitation  
Precipitation 0.00 in - - ()
Sea Level Pressure  
Sea Level Pressure 30.33 in    
Wind  
Wind Speed 7 mph (NNW)    
Max Wind Speed 13 mph    
Max Gust Speed 24 mph    
Visibility 10 miles    
Events      
Averages and records for this station are not official NWS values.
T = Trace of Precipitation, MM = Missing Value Source: NWS Daily Summary

Daily Weather History Graph

Daily Weather History Graph

Search for Another Location

Airport or City:

Trip Planner

Search our weather history database for the weather conditions in past years. The results will help you decide how hot, cold, wet, or windy it might be!

Date:

Astronomy

Dec. 12, 2012 Rise Set
Actual Time 7:02 AM EST 4:15 PM EST
Civil Twilight 6:31 AM EST 4:46 PM EST
Nautical Twilight 5:56 AM EST 5:21 PM EST
Astronomical Twilight 5:22 AM EST 5:55 PM EST
Moon 6:03 AM EST (12/12) 3:49 PM EST (12/12)
Length of Visible Light 10h 15m
Length of Day
9h 12m
Waning Crescent, 1% of the Moon is Illuminated
Dec 12
Waning Crescent
Dec 13
New
Dec 20
First Quarter
Dec 28
Full
Jan 4
Last Quarter

Hourly Weather History & Observations

Time (EST) Temp. Windchill Dew Point Humidity Pressure Visibility Wind Dir Wind Speed Gust Speed Precip Events Conditions
12:53 AM 35.1 °F 27.4 °F 21.0 °F 57% 30.17 in 10.0 mi NW 10.4 mph 23.0 mph N/A   Clear
1:53 AM 34.0 °F 25.0 °F 19.9 °F 56% 30.19 in 10.0 mi NW 12.7 mph 24.2 mph N/A   Clear
2:53 AM 34.0 °F 26.6 °F 21.0 °F 59% 30.21 in 10.0 mi NW 9.2 mph 18.4 mph N/A   Clear
3:53 AM 33.1 °F 24.9 °F 19.9 °F 59% 30.22 in 10.0 mi NNW 10.4 mph - N/A   Clear
4:53 AM 33.1 °F 24.4 °F 19.9 °F 59% 30.25 in 10.0 mi NNW 11.5 mph 19.6 mph N/A   Clear
5:53 AM 32.0 °F 25.6 °F 21.0 °F 64% 30.28 in 10.0 mi NNW 6.9 mph - N/A   Clear
6:53 AM 30.9 °F 24.3 °F 19.9 °F 64% 30.31 in 10.0 mi NNW 6.9 mph - N/A   Clear
8:53 AM 35.1 °F 30.1 °F 21.0 °F 57% 30.35 in 10.0 mi North 5.8 mph - N/A   Clear
9:53 AM 34.0 °F 26.6 °F 21.9 °F 61% 30.35 in 10.0 mi NW 9.2 mph - N/A   Clear
10:53 AM 35.1 °F 28.6 °F 21.9 °F 59% 30.35 in 10.0 mi North 8.1 mph - N/A   Clear
11:53 AM 37.0 °F 31.0 °F 21.9 °F 54% 30.34 in 10.0 mi North 8.1 mph - N/A   Clear
12:53 PM 37.9 °F 33.5 °F 21.9 °F 53% 30.33 in 10.0 mi NNW 5.8 mph - N/A   Clear
1:53 PM 39.0 °F 33.4 °F 19.9 °F 46% 30.33 in 10.0 mi North 8.1 mph - N/A   Clear
2:53 PM 37.9 °F 35.5 °F 21.9 °F 53% 30.35 in 10.0 mi North 3.5 mph - N/A   Clear
3:53 PM 37.9 °F - 21.0 °F 51% 30.36 in 10.0 mi Calm Calm - N/A   Clear
4:53 PM 33.1 °F - 21.9 °F 64% 30.37 in 10.0 mi Calm Calm - N/A   Clear
5:53 PM 30.9 °F - 21.9 °F 69% 30.37 in 10.0 mi Calm Calm - N/A   Clear
6:53 PM 33.1 °F 30.0 °F 24.1 °F 70% 30.40 in 10.0 mi NW 3.5 mph - N/A   Clear
7:53 PM 34.0 °F - 24.1 °F 67% 30.38 in 10.0 mi Calm Calm - N/A   Clear
8:53 PM 32.0 °F - 24.1 °F 73% 30.39 in 10.0 mi Calm Calm - N/A   Clear
9:53 PM 34.0 °F 31.0 °F 25.0 °F 70% 30.43 in 10.0 mi NNW 3.5 mph - N/A   Clear
10:53 PM 34.0 °F 31.0 °F 25.0 °F 70% 30.41 in 10.0 mi NNW 3.5 mph - N/A   Clear
11:53 PM 33.1 °F - 25.0 °F 72% 30.41 in 10.0 mi Calm Calm - N/A   Clear